Back to catalog

STARLINK-11319

AliveCommunicationsVLEO
NORAD 61251·PAYLOAD·🇺🇸 United States

Launched Sep 25, 2024 from Vandenberg Space Force Base

Loading…

Next Passes (next 24 hours)

TLE

FreshSource: CelesTrak SupGP

Epoch: Sep 15, 2026, 03:36 UTC

1 61251C 24175J   26258.15048611 -.00047005  00000+0 -38706-3 0  2585
2 61251  53.1578 202.5962 0001105  83.0525 120.4604 15.69741223    10

Track STARLINK-11319 in real time with AllMySat

Download on the App Store